This demonstration page uses our WeatherBlox Daily Observations layout. Learn more.

Left ArrowRight Arrow

Hourly Observations for December 14, 2019

Temp ( °F °C ) Dew Point ( °F °C ) Humidity (%) Winds ( mph kmh ) Pressure ( in mb ) Visibility ( mi km ) Precip ( " mm )
12:10 am 00:10 Cloudy with Light Snow 11 -11.7 7 -13.9 84 84 ENE 9 15 30.16 1021 3 5 0.00 0.00
12:18 am 00:18 Cloudy with Light Snow 11 -11.7 7 -13.9 84 84 ENE 9 15 30.15 1021 5 8 0.00 0.00
12:53 am 00:53 Cloudy with Light Snow 10 -12.2 6 -14.4 84 84 E 12 19 30.05 1018 7 11 0.00 0.00
1:53 am 01:53 Cloudy 10 -12.2 6 -14.4 84 84 ENE 13 20 30.04 1017 10 16 0.00 0.00
2:53 am 02:53 Cloudy 10 -12.2 6 -14.4 84 84 E 9 15 30.03 1017 10 16 0.00 0.00
3:53 am 03:53 Cloudy 10 -12.2 6 -14.4 84 84 E 7 11 30.00 1016 10 16 0.00 0.00
4:28 am 04:28 Cloudy with Light Snow 10 -12 7 -14 85 85 ENE 7 11 30.10 1019 2 3 0.00 0.00
4:37 am 04:37 Cloudy with Light Snow 10 -12.2 6 -14.4 84 84 ENE 6 9 30.11 1019 2 3 0.00 0.00
4:53 am 04:53 Cloudy with Light Snow 10 -12.2 6 -14.4 84 84 E 6 9 30.01 1016 3 5 0.01 0.25
5:22 am 05:22 Cloudy with Light Snow 9 -12.8 5 -15 84 84 E 7 11 30.10 1019 7 11 0.00 0.00
5:53 am 05:53 Cloudy with Light Snow 9 -12.8 5 -15 84 84 E 8 13 30.01 1016 2 3 0.00 0.00
5:57 am 05:57 Cloudy with Light Snow 9 -12.8 5 -15 84 84 E 7 11 30.10 1019 2 3 0.00 0.00
6:02 am 06:02 Cloudy with Light Snow 9 -12.8 5 -15 84 84 E 6 9 30.10 1019 3 5 0.00 0.00
6:40 am 06:40 Cloudy 9 -13 5 -15 85 85 E 6 9 30.09 1019 10 16 0.00 0.00
6:53 am 06:53 Cloudy 10 -12.2 6 -14.4 84 84 E 5 7 29.99 1016 10 16 0.00 0.00
7:53 am 07:53 Cloudy 11 -11.7 7 -13.9 84 84 Calm 29.99 1016 10 16 0.00 0.00
8:53 am 08:53 Cloudy 11 -11.7 8 -13.3 88 88 ESE 3 6 29.99 1016 10 16 0.00 0.00
9:53 am 09:53 Cloudy 11 -11.7 8 -13.3 88 88 Calm 29.99 1016 10 16 0.00 0.00
10:08 am 10:08 Cloudy 12 -11.1 8 -13.3 84 84 ESE 3 6 30.07 1018 10 16 0.00 0.00
10:53 am 10:53 Cloudy 13 -10.6 8 -13.3 81 81 Calm 29.99 1016 10 16 0.00 0.00
11:53 am 11:53 Cloudy 14 -10 9 -12.8 80 80 W 5 7 29.97 1015 10 16 0.00 0.00
12:53 pm 12:53 Cloudy 15 -9.4 10 -12.2 80 80 WSW 7 11 29.96 1014 10 16 0.00 0.00
1:53 pm 13:53 Cloudy 15 -9.4 10 -12.2 80 80 WSW 8 13 29.95 1014 10 16 0.00 0.00
2:53 pm 14:53 Cloudy 15 -9.4 9 -12.8 77 77 W 8 13 29.96 1015 10 16 0.00 0.00
3:53 pm 15:53 Mostly Sunny 11 -11.7 7 -13.9 84 84 SW 8 13 29.97 1015 10 16 0.00 0.00
4:53 pm 16:53 Cloudy 12 -11.1 9 -12.8 87 87 SW 8 13 29.97 1015 10 16 0.00 0.00
5:53 pm 17:53 Partly Cloudy 8 -13.3 5 -15 87 87 SW 9 15 29.98 1015 10 16 0.00 0.00
6:53 pm 18:53 Clear 6 -14.4 4 -15.6 91 91 WSW 6 9 29.97 1015 9 14 0.00 0.00
7:31 pm 19:31 Mostly Cloudy 7 -13.9 4 -15.6 87 87 WSW 9 15 30.08 1018 9 14 0.00 0.00
7:53 pm 19:53 Cloudy 10 -12.2 8 -13.3 92 92 SW 12 19 29.96 1014 8 13 0.00 0.00
8:20 pm 20:20 Mostly Cloudy 9 -12.8 7 -13.9 92 92 SW 13 20 30.04 1017 8 13 0.00 0.00
8:34 pm 20:34 Mostly Cloudy 10 -12.2 7 -13.9 87 87 SW 16 26 30.04 1017 9 14 0.00 0.00
8:53 pm 20:53 Mostly Cloudy 9 -12.8 6 -14.4 88 88 SW 14 22 29.95 1014 9 14 0.00 0.00
9:04 pm 21:04 Cloudy 9 -13 5 -15 85 85 SW 12 19 30.04 1017 9 14 0.00 0.00
9:53 pm 21:53 Mostly Cloudy 7 -13.9 4 -15.6 87 87 WSW 10 17 29.94 1014 10 16 0.00 0.00
10:53 pm 22:53 Mostly Cloudy 9 -12.8 5 -15 84 84 W 8 13 29.95 1014 10 16 0.00 0.00
11:53 pm 23:53 Cloudy 13 -10.6 10 -12.2 88 88 W 7 11 29.93 1013 10 16 0.00 0.00

Powered by AerisWeather